Williamstown, MA

6:34 PM EDT on August 31, 2016 (GMT -0400)
Harriman And West

Weather History for KAQW - January, 2014

Change the Weather History Date:

Sunday, January 26, 2014

  Actual Average Record
Temperature  
Mean Temperature 12 °F -  
Max Temperature 19 °F 27 °F 48 °F (2002)
Min Temperature 6 °F 9 °F -7 °F (2004)
Degree Days  
Heating Degree Days 52    
Moisture  
Dew Point -2 °F    
Average Humidity 50    
Maximum Humidity 62    
Minimum Humidity 40    
Precipitation  
Precipitation 0.00 in - - ()
Sea Level Pressure  
Sea Level Pressure 29.71 in    
Wind  
Wind Speed 11 mph (West)    
Max Wind Speed 18 mph    
Max Gust Speed 30 mph    
Visibility 10 miles    
Events      
Averages and records for this station are not official NWS values.
T = Trace of Precipitation, MM = Missing Value Source: NWS Daily Summary

Daily Weather History Graph

Daily Weather History Graph

Search for Another Location

Airport or City:

Trip Planner

Search our weather history database for the weather conditions in past years. The results will help you decide how hot, cold, wet, or windy it might be!

Date:

Astronomy

Jan. 26, 2014 Rise Set
Actual Time 7:12 AM EST 4:58 PM EST
Civil Twilight 6:42 AM EST 5:28 PM EST
Nautical Twilight 6:08 AM EST 6:02 PM EST
Astronomical Twilight 5:34 AM EST 6:36 PM EST
Moon 2:47 AM EST (1/26) 12:44 PM EST (1/26)
Length of Visible Light 10h 46m
Length of Day
9h 45m
Waning Crescent, 24% of the Moon is Illuminated
Jan 26
Waning Crescent
Jan 30
New
Feb 6
First Quarter
Feb 14
Full
Feb 22
Last Quarter

Hourly Weather History & Observations

Time (EST) Temp. Windchill Dew Point Humidity Pressure Visibility Wind Dir Wind Speed Gust Speed Precip Events Conditions
12:52 AM 18.0 °F 3.6 °F 7.0 °F 62% 29.43 in 10.0 mi West 15.0 mph 24.2 mph 0.00 in   Overcast
1:00 AM 17.6 °F 2.7 °F 3.2 °F 53% 29.40 in 9.0 mi West 16.1 mph 29.9 mph N/A   Overcast
1:52 AM 15.1 °F 1.8 °F 1.9 °F 56% 29.49 in 10.0 mi West 11.5 mph 21.9 mph N/A   Overcast
2:52 AM 14.0 °F 1.2 °F -0.0 °F 54% 29.53 in 10.0 mi WNW 10.4 mph 18.4 mph N/A   Overcast
3:52 AM 10.9 °F -4.1 °F -2.9 °F 54% 29.59 in 10.0 mi West 12.7 mph 24.2 mph N/A   Overcast
4:52 AM 10.0 °F -5.2 °F -4.0 °F 53% 29.62 in 10.0 mi West 12.7 mph 23.0 mph N/A   Partly Cloudy
5:52 AM 8.1 °F -10.7 °F -9.0 °F 46% 29.65 in 10.0 mi West 18.4 mph 28.8 mph N/A   Clear
6:52 AM 6.1 °F -11.6 °F -9.0 °F 50% 29.69 in 10.0 mi West 15.0 mph 29.9 mph N/A   Clear
7:52 AM 6.1 °F -11.6 °F -11.0 °F 45% 29.73 in 10.0 mi West 15.0 mph - N/A   Clear
8:52 AM 7.0 °F -7.5 °F -11.0 °F 44% 29.77 in 10.0 mi WSW 10.4 mph 19.6 mph N/A   Partly Cloudy
9:52 AM 9.0 °F -5.9 °F -11.0 °F 40% 29.79 in 10.0 mi West 11.5 mph 17.3 mph N/A   Clear
10:52 AM 10.9 °F -3.4 °F -7.1 °F 44% 29.81 in 10.0 mi West 11.5 mph - N/A   Clear
11:52 AM 12.0 °F -3.4 °F -7.1 °F 42% 29.81 in 10.0 mi West 13.8 mph 27.6 mph N/A   Partly Cloudy
12:52 PM 12.9 °F 0.7 °F -6.0 °F 43% 29.78 in 10.0 mi West 9.2 mph - N/A   Partly Cloudy
1:52 PM 14.0 °F 2.9 °F -5.1 °F 43% 29.77 in 10.0 mi West 8.1 mph - N/A   Partly Cloudy
2:52 PM 14.0 °F 3.9 °F -2.9 °F 47% 29.78 in 10.0 mi West 6.9 mph - N/A   Overcast
3:52 PM 15.1 °F 6.4 °F -4.0 °F 43% 29.79 in 10.0 mi SW 5.8 mph - N/A   Scattered Clouds
4:52 PM 14.0 °F 8.2 °F -2.0 °F 49% 29.80 in 10.0 mi South 3.5 mph - N/A   Partly Cloudy
5:52 PM 10.9 °F - -2.0 °F 56% 29.79 in 10.0 mi Calm Calm - N/A   Partly Cloudy
6:52 PM 14.0 °F - -2.0 °F 49% 29.82 in 10.0 mi Calm Calm - N/A   Overcast
7:52 PM 15.1 °F 6.4 °F 1.0 °F 54% 29.81 in 10.0 mi East 5.8 mph - N/A   Overcast
8:52 PM 18.0 °F 6.9 °F 3.9 °F 54% 29.80 in 10.0 mi SSW 9.2 mph 29.9 mph N/A   Overcast
9:52 PM 19.0 °F 12.3 °F 7.0 °F 59% 29.80 in 10.0 mi Variable 4.6 mph - N/A   Overcast
10:52 PM 19.9 °F 12.1 °F 8.1 °F 60% 29.81 in 10.0 mi Variable 5.8 mph - N/A   Overcast
11:52 PM 19.9 °F 12.1 °F 8.1 °F 60% 29.77 in 10.0 mi Variable 5.8 mph - N/A   Overcast